sat.trackr.live / text

‹ back to catalog

BRO-13

NORAD 59107 · 2024-043K

PAYLOAD ACTIVE UNKNOWN

§ Identity

Operator
Country
FR
Launch date
2024-03-04
Launch site
AFWTR
Launch vehicle
Mass (kg)
RCS (m²)

External: N2YO · Heavens-Above · Gunter

§ Orbital elements

Epoch: 2026-05-25T03:49:07.592160Z

Period
96.22 min
Inclination
97.8461°
Eccentricity
0.0010175
Mean motion
14.96526474 rev/d
Perigee alt
570.6 km
Apogee alt
584.7 km
Semi-major
6,955.8 km
B*
8.7603e-5
RAAN
276.1100°
Arg perigee
78.5048°
Mean anomaly
281.7315°
Rev number
12,117

§ Raw data

BRO-131 59107U 24043K   26145.15911565  .00000937  00000+0  87603-4 0  99922 59107  97.8461 276.1100 0010175  78.5048 281.7315 14.96526474121179

JSON: /api/v1/satellites/59107 · /tle

For live sub-satellite position, see the globe view (requires WebGL).

§ Visibility from observer

Set your observer location to see the next 7 days of passes ≥ 10°. The values pass through the URL so the page stays shareable.

No JS? Fill the form by hand. The geolocation button needs JavaScript.

§ Radio — SatNOGS DB

ModeDescriptionDownlinkUplink
BPSK Mode S - Transmitter 2.261 GHz
FSK AX.100 Mode 5 Mode U - FSK4k8 - TLM 401.760 MHz
FSK AX.100 Mode 5 Mode U - FSK9k6 - TLM 401.760 MHz
FSK AX.100 Mode 5 Mode U - FSK4k8 - TLM (inactive) 401.735 MHz
FSK AX.100 Mode 5 Mode U - FSK9k6 - TLM (inactive) 401.735 MHz

5 transmitters · refreshed weekly from db.satnogs.org